Time,TemperatureF,DewpointF,PressureIn,WindDirection,WindDirectionDegrees,WindSpeedMPH,WindSpeedGustMPH,Humidity,HourlyPrecipIn,Conditions,Clouds,dailyrainin,SoftwareType,DateUTC
2013-08-04 00:03:00,61.9,-99.9,-100.00,North,-999,0.0,0.0,-999,0.00,,,-99.99,WeatherLink 5.4,2013-08-04 04:03:00,
2013-08-04 00:33:00,61.7,-99.9,-100.00,North,-999,0.0,0.0,-999,0.00,,,-99.99,WeatherLink 5.4,2013-08-04 04:33:00,
2013-08-04 01:03:00,61.7,-99.9,-100.00,North,-999,0.0,0.0,-999,0.00,,,-99.99,WeatherLink 5.4,2013-08-04 05:03:00,
2013-08-04 01:33:00,61.6,-99.9,-100.00,North,-999,0.0,0.0,-999,0.00,,,-99.99,WeatherLink 5.4,2013-08-04 05:33:00,
2013-08-04 02:03:00,61.9,-99.9,-100.00,North,-999,0.0,0.0,-999,0.00,,,-99.99,WeatherLink 5.4,2013-08-04 06:03:00,
2013-08-04 02:33:00,61.1,-99.9,-100.00,North,-999,0.0,0.0,-999,0.00,,,-99.99,WeatherLink 5.4,2013-08-04 06:33:00,
2013-08-04 03:03:00,61.1,-99.9,-100.00,NNW,337,0.0,3.0,-999,0.00,,,-99.99,WeatherLink 5.4,2013-08-04 07:03:00,
2013-08-04 03:33:00,62.0,-99.9,-100.00,NNW,337,0.0,2.0,-999,0.00,,,-99.99,WeatherLink 5.4,2013-08-04 07:33:00,
2013-08-04 04:03:00,61.8,-99.9,-100.00,North,-999,0.0,0.0,-999,0.00,,,-99.99,WeatherLink 5.4,2013-08-04 08:03:00,
2013-08-04 04:33:00,61.5,-99.9,-100.00,North,-999,0.0,0.0,-999,0.00,,,-99.99,WeatherLink 5.4,2013-08-04 08:33:00,
2013-08-04 05:03:00,61.7,-99.9,-100.00,North,-999,0.0,0.0,-999,0.00,,,-99.99,WeatherLink 5.4,2013-08-04 09:03:00,
2013-08-04 05:33:00,60.8,-99.9,-100.00,North,-999,0.0,0.0,-999,0.00,,,-99.99,WeatherLink 5.4,2013-08-04 09:33:00,
2013-08-04 06:03:00,61.4,-99.9,-100.00,North,-999,0.0,0.0,-999,0.00,,,-99.99,WeatherLink 5.4,2013-08-04 10:03:00,
2013-08-04 06:33:00,60.5,-99.9,-100.00,North,-999,0.0,0.0,-999,0.00,,,-99.99,WeatherLink 5.4,2013-08-04 10:33:00,
2013-08-04 07:03:00,59.4,-99.9,-100.00,North,-999,0.0,0.0,-999,0.00,,,-99.99,WeatherLink 5.4,2013-08-04 11:03:00,
2013-08-04 07:33:00,58.8,-99.9,-100.00,North,-999,0.0,0.0,-999,0.00,,,-99.99,WeatherLink 5.4,2013-08-04 11:33:00,
2013-08-04 08:03:00,59.4,-99.9,-100.00,North,-999,0.0,0.0,-999,0.00,,,-99.99,WeatherLink 5.4,2013-08-04 12:03:00,
2013-08-04 08:33:00,61.0,-99.9,-100.00,NNW,337,0.0,3.0,-999,0.00,,,-99.99,WeatherLink 5.4,2013-08-04 12:33:00,
2013-08-04 09:03:00,62.1,-99.9,-100.00,North,0,0.0,5.0,-999,0.00,,,-99.99,WeatherLink 5.4,2013-08-04 13:03:00,
2013-08-04 09:33:00,62.4,-99.9,-100.00,NW,315,0.0,8.0,-999,0.00,,,-99.99,WeatherLink 5.4,2013-08-04 13:33:00,
2013-08-04 10:03:00,64.0,-99.9,-100.00,NNE,22,1.0,10.0,-999,0.00,,,-99.99,WeatherLink 5.4,2013-08-04 14:03:00,
2013-08-04 10:33:00,64.4,-99.9,-100.00,North,0,2.0,11.0,-999,0.00,,,-99.99,WeatherLink 5.4,2013-08-04 14:33:00,
2013-08-04 11:03:00,64.5,-99.9,-100.00,NNE,22,1.0,8.0,-999,0.00,,,-99.99,WeatherLink 5.4,2013-08-04 15:03:00,
2013-08-04 11:33:00,65.2,-99.9,-100.00,North,0,1.0,9.0,-999,0.00,,,-99.99,WeatherLink 5.4,2013-08-04 15:33:00,
2013-08-04 12:03:00,65.2,-99.9,-100.00,NNW,337,3.0,11.0,-999,0.00,,,-99.99,WeatherLink 5.4,2013-08-04 16:03:00,
2013-08-04 12:33:00,66.0,-99.9,-100.00,NNE,22,1.0,11.0,-999,0.00,,,-99.99,WeatherLink 5.4,2013-08-04 16:33:00,
2013-08-04 13:03:00,68.5,-99.9,-100.00,North,0,2.0,10.0,-999,0.00,,,-99.99,WeatherLink 5.4,2013-08-04 17:03:00,
2013-08-04 13:33:00,72.7,-99.9,-100.00,North,0,2.0,9.0,-999,0.00,,,-99.99,WeatherLink 5.4,2013-08-04 17:33:00,
2013-08-04 14:03:00,79.3,-99.9,-100.00,NNW,337,2.0,11.0,-999,0.00,,,-99.99,WeatherLink 5.4,2013-08-04 18:03:00,
2013-08-04 14:33:00,71.6,-99.9,-100.00,NNW,337,2.0,12.0,-999,0.00,,,-99.99,WeatherLink 5.4,2013-08-04 18:33:00,
2013-08-04 15:03:00,70.2,-99.9,-100.00,NNW,337,1.0,6.0,-999,0.00,,,-99.99,WeatherLink 5.4,2013-08-04 19:03:00,
2013-08-04 15:33:00,70.8,-99.9,-100.00,NNW,337,1.0,8.0,-999,0.00,,,-99.99,WeatherLink 5.4,2013-08-04 19:33:00,
2013-08-04 16:03:00,71.4,-99.9,-100.00,NNW,337,1.0,10.0,-999,0.00,,,-99.99,WeatherLink 5.4,2013-08-04 20:03:00,
2013-08-04 16:33:00,71.6,-99.9,-100.00,NNW,337,2.0,10.0,-999,0.00,,,-99.99,WeatherLink 5.4,2013-08-04 20:33:00,
2013-08-04 17:03:00,71.7,-99.9,-100.00,North,0,1.0,8.0,-999,0.00,,,-99.99,WeatherLink 5.4,2013-08-04 21:03:00,
2013-08-04 17:33:00,70.9,-99.9,-100.00,North,0,1.0,9.0,-999,0.00,,,-99.99,WeatherLink 5.4,2013-08-04 21:33:00,
2013-08-04 18:03:00,71.5,-99.9,-100.00,NNE,22,1.0,7.0,-999,0.00,,,-99.99,WeatherLink 5.4,2013-08-04 22:03:00,
2013-08-04 18:33:00,72.4,-99.9,-100.00,NNW,337,2.0,10.0,-999,0.00,,,-99.99,WeatherLink 5.4,2013-08-04 22:33:00,
2013-08-04 19:03:00,71.2,-99.9,-100.00,North,0,1.0,7.0,-999,0.00,,,-99.99,WeatherLink 5.4,2013-08-04 23:03:00,
2013-08-04 19:33:00,69.1,-99.9,-100.00,NNE,22,2.0,8.0,-999,0.00,,,-99.99,WeatherLink 5.4,2013-08-04 23:33:00,
2013-08-04 20:03:00,68.1,-99.9,-100.00,NE,45,0.0,6.0,-999,0.00,,,-99.99,WeatherLink 5.4,2013-08-05 00:03:00,
2013-08-04 20:33:00,67.9,-99.9,-100.00,NW,315,0.0,4.0,-999,0.00,,,-99.99,WeatherLink 5.4,2013-08-05 00:33:00,
2013-08-04 21:03:00,65.5,-99.9,-100.00,NNE,22,0.0,1.0,-999,0.00,,,-99.99,WeatherLink 5.4,2013-08-05 01:03:00,
2013-08-04 21:33:00,64.2,-99.9,-100.00,North,-999,0.0,0.0,-999,0.00,,,-99.99,WeatherLink 5.4,2013-08-05 01:33:00,
2013-08-04 22:03:00,63.1,-99.9,-100.00,North,-999,0.0,0.0,-999,0.00,,,-99.99,WeatherLink 5.4,2013-08-05 02:03:00,
2013-08-04 22:33:00,62.9,-99.9,-100.00,North,-999,0.0,0.0,-999,0.00,,,-99.99,WeatherLink 5.4,2013-08-05 02:33:00,
2013-08-04 23:03:00,62.1,-99.9,-100.00,North,-999,0.0,0.0,-999,0.00,,,-99.99,WeatherLink 5.4,2013-08-05 03:03:00,
2013-08-04 23:33:00,61.0,-99.9,-100.00,North,-999,0.0,0.0,-999,0.00,,,-99.99,WeatherLink 5.4,2013-08-05 03:33:00,